Regional Weather Roundup
Issued by NWS

Home | Current Version | Previous Version | Graphics & Text | Print | Product List | Glossary On
Versions: 1 2 3 4 5 6 7 8 9 10 11 12 13 14 15 16 17 18 19 20 21 22 23 24 25 26 27 28 29 30 31 32 33 34 35 36 37 38 39 40 41 42 43 44 45 46 47 48 49 50
000
ASUS43 KOAX 280710
RWRNE

WEATHER ROUNDUP FOR NEBRASKA
NATIONAL WEATHER SERVICE OMAHA NE
200 AM CDT TUE JUL 28 2015

NOTES: SATELLITE DATA IS BEING USED TO AUGMENT CLOUD COVER ABOVE
       12000 FEET.
       "FAIR" INDICATES FEW OR NO CLOUDS BELOW 12,000 FEET WITH NO
       SIGNIFICANT WEATHER AND/OR OBSTRUCTIONS TO VISIBILITY.

  * THESE STATIONS DO NOT REPORT WEATHER SUCH AS RAIN...SNOW OR FOG.

NEZ001>004-019>022-054>056-280800-
NEBRASKA PANHANDLE

CITY           SKY/WX    TMP DP  RH WIND       PRES   REMARKS
SCOTTSBLUFF    CLEAR     63  52  67 NW8       29.93R
ALLIANCE       PTCLDY    70  44  39 NW10      29.88R
CHADRON        PTCLDY    62  52  69 W22G28    29.90R
KIMBALL        CLEAR     65  43  43 NW15      29.96R
SIDNEY         CLEAR     72  51  47 N18G25    29.92R
$$

NEZ057>060-069>072-079>082-280800-
SOUTHWEST NEBRASKA

CITY           SKY/WX    TMP DP  RH WIND       PRES   REMARKS
NORTH PLATTE   CLEAR     79  68  69 S13G21    29.73R
IMPERIAL       CLEAR     78  65  63 NW10G21   29.78R
LEXINGTON      CLEAR     81  68  65 S21       29.75S
MCCOOK         CLEAR     84  68  58 S23G29    29.74R
OGALLALA       PTCLDY    74  69  86 E3        29.77R
$$

NEZ005>010-023>029-035>040-094-280800-
NORTH CENTRAL NEBRASKA

CITY           SKY/WX    TMP DP  RH WIND       PRES   REMARKS
VALENTINE      LGT RAIN  69  64  84 E5        29.79R
AINSWORTH      CLOUDY    74  62  66 SW17G26   29.81R
BROKEN BOW     PTCLDY    81  67  62 S13G25    29.73F
O`NEILL        PTCLDY    81  71  72 S20G25    29.71F
ORD            CLEAR     80  66  62 S12G21    29.72F
THEDFORD       CLOUDY    69  63  79 NW6       29.80F
$$

NEZ041-046>049-061>064-073>077-083>087-280800-
SOUTH CENTRAL NEBRASKA

CITY           SKY/WX    TMP DP  RH WIND       PRES   REMARKS
GRAND ISLAND   CLEAR     79  67  66 S20G26    29.76F
AURORA         CLEAR     80  68  66 S15G22    29.78S
HASTINGS       CLEAR     80  66  62 S14G22    29.78F
HEBRON         CLEAR     80  68  67 S13G18    29.80S
HOLDREGE       CLEAR     79  67  66 S13G20    29.77S
KEARNEY *      CLEAR     79  66  65 S16G22    29.76F
YORK           PTCLDY    77  70  78 S13       29.79F
$$

NEZ011>018-030>034-042>045-280800-
NORTHEAST NEBRASKA

CITY           SKY/WX    TMP DP  RH WIND       PRES   REMARKS
NORFOLK        PTCLDY    78  74  87 SE17      29.76S
ALBION         CLEAR     79  67  66 SE13      29.77S
BLAIR          PTCLDY    76  69  80 SE14      29.82F
COLUMBUS *     PTCLDY    81  70  69 S9G16     29.77F
FREMONT        CLEAR     76  72  85 SE10      29.81S
TEKAMAH        CLEAR     76  72  87 SE9       29.80F
WAYNE          CLOUDY    74  72  92 S10       29.79S
$$

NEZ050>053-065>068-078-088>093-280800-
SOUTHEAST NEBRASKA

CITY           SKY/WX    TMP DP  RH WIND       PRES   REMARKS
LINCOLN        CLEAR     81  72  74 S14       29.81F
OMAHA EPPLEY   PTCLDY    77  71  82 SE14      29.82F
BEATRICE       CLEAR     80  72  76 S12       29.83S
FALLS CITY     CLEAR     75  73  93 SE7       29.85S
NEBRASKA CITY  CLEAR     74  73  95 SE7       29.84F
PLATTSMOUTH    CLEAR     74  73  94 SE8       29.84F
$$

NEZ044-045-051>053-067-280800-
OMAHA AREA

CITY           SKY/WX    TMP DP  RH WIND       PRES   REMARKS
OMAHA EPPLEY   PTCLDY    77  71  82 SE14      29.82F
BLAIR          PTCLDY    76  69  80 SE14      29.82F
FREMONT        CLEAR     76  72  85 SE10      29.81S
MILLARD        CLEAR     76  72  87 SE9       29.82F
OFFUTT AFB     PTCLDY    75  71  88 SE9       29.82F
PLATTSMOUTH    CLEAR     74  73  94 SE8       29.84F
WAHOO          FAIR      74  73  93 SE10      29.81S
$$



USA.gov is the U.S. government's official web portal to all federal, state and local government web resources and services.